Wind_Speed
27 27 27 27 27 28 28 29 29 29 30 31 31 32 33 33 33 34 34 35 35 36 36 37 38 39 40 40 40 41 42 43 43 44 45 45 45 46 46 45 46 46 46
28 28 28 29 29 29 30 30 30 31 31 32 33 34 34 35 35 35 36 36 37 37 38 39 39 40 41 41 42 43 44 45 45 46 46 47 47 47 48 48 48 49 49
30 29 30 30 31 31 31 32 32 33 33 34 35 36 36 36 37 37 37 38 38 39 39 40 41 42 42 43 44 45 46 47 47 48 48 49 50 50 51 51 51 51 51
31 31 31 32 33 33 33 33 33 34 34 35 36 37 37 37 38 38 38 39 40 41 41 42 43 44 45 46 47 48 49 49 49 50 50 51 52 53 54 54 54 54 53
32 32 33 33 34 34 34 34 34 35 36 36 37 37 38 38 39 39 40 40 41 42 43 44 45 46 47 48 49 50 50 51 52 52 53 53 54 55 55 55 56 57 56
33 33 33 33 34 34 35 35 35 36 37 37 38 38 38 39 40 40 41 42 43 44 45 46 47 48 49 50 51 52 52 52 53 54 54 55 55 56 56 56 57 58 59
34 35 35 34 34 35 35 35 36 36 38 38 38 38 38 39 40 41 42 43 44 46 47 48 49 50 51 52 53 53 53 54 54 54 55 55 56 57 57 58 59 60 61
35 35 35 35 35 36 35 36 37 38 38 39 39 39 39 40 41 42 43 45 46 47 48 49 50 52 53 53 54 54 55 55 56 56 56 57 58 58 59 59 59 60 60
36 36 36 36 36 36 36 37 38 39 39 40 41 42 42 42 42 42 44 46 47 48 49 51 52 53 54 54 54 55 56 56 57 57 58 58 58 58 58 58 59 59 59
36 37 37 37 37 37 38 38 39 40 40 41 42 43 44 45 46 45 45 47 48 50 51 52 54 55 56 56 56 57 57 57 58 58 58 57 58 58 59 58 59 59 60
37 37 37 38 38 39 39 40 40 41 42 43 44 45 46 47 48 49 48 48 50 51 52 53 55 56 57 57 58 59 59 59 59 58 58 58 59 60 60 60 60 60 61
38 38 39 39 40 40 41 41 42 42 43 44 45 47 48 49 50 51 51 51 51 51 53 55 56 57 58 58 59 60 60 59 59 59 59 59 59 60 59 60 61 61 62
39 39 40 41 41 42 42 43 43 44 44 45 46 48 49 50 51 52 53 52 52 52 53 54 56 58 59 59 60 59 59 59 60 60 59 60 60 60 60 61 61 61 61
40 41 41 42 42 43 43 44 44 44 45 46 47 48 49 50 51 52 53 53 53 53 53 54 56 58 59 59 59 59 59 59 59 59 59 60 61 61 61 60 59 59 58
42 42 42 43 43 43 44 44 45 45 46 46 47 49 50 50 51 52 52 53 55 55 54 55 57 58 58 58 58 58 59 58 58 59 60 60 61 59 58 57 56 54 53
43 43 44 44 44 44 44 44 45 45 46 47 48 48 49 50 51 51 52 54 55 57 57 56 57 57 57 57 57 58 58 58 58 59 59 58 57 55 55 53 52 50 49
43 44 44 44 44 44 45 45 45 46 46 47 48 49 49 50 50 51 53 54 56 58 59 57 57 56 56 56 57 57 57 56 56 56 55 55 53 52 51 50 49 48 48
43 44 44 44 44 44 44 45 45 46 46 47 48 49 50 50 51 52 53 54 55 57 58 57 55 55 56 56 55 55 54 54 54 53 52 50 49 48 48 47 47 47 46
43 43 44 44 43 43 43 44 45 46 46 47 48 49 50 50 51 52 53 54 55 56 56 57 55 55 54 54 53 52 51 50 50 49 48 47 45 46 46 45 44 44 43
42 42 42 43 43 43 43 44 45 45 46 48 49 50 50 50 51 52 52 53 54 55 55 55 54 53 51 51 50 49 47 46 46 46 45 44 42 42 41 40 39 39 38
42 42 42 42 42 43 43 44 45 45 46 47 48 49 49 50 51 52 52 53 53 54 54 53 51 49 48 47 46 46 45 44 43 43 42 40 38 37 36 36 35 35 34
41 41 41 42 42 43 43 44 45 46 47 48 49 49 49 50 51 51 51 52 53 53 51 50 48 47 45 45 45 44 44 42 41 40 38 35 34 33 33 33 33 32 31
40 40 40 41 42 43 44 44 45 47 48 48 49 49 49 50 50 50 50 50 51 50 48 47 46 44 44 44 43 42 41 40 38 37 34 32 31 32 32 32 31 29 28
39 39 40 41 42 43 44 44 45 47 48 48 49 49 49 48 48 48 47 47 47 46 45 44 43 43 42 42 40 39 38 37 35 34 32 30 28 29 30 29 28 26 25
39 40 40 41 41 42 43 44 46 46 47 47 48 48 47 46 46 46 46 46 45 42 41 41 40 40 40 39 37 37 37 35 32 31 30 28 27 27 27 26 25 24 22
40 40 40 40 41 42 44 45 46 46 46 46 45 44 44 44 44 44 44 43 40 38 38 37 37 38 37 36 36 35 35 33 31 28 27 27 26 25 23 23 23 21 19
Wind_Direction
271 272 273 275 276 277 278 279 280 280 281 283 284 285 286 286 287 288 288 288 289 289 289 289 289 289 289 289 289 289 289 288 287 286 285 284 283 281 281 281 280 278 277
271 272 273 275 276 277 278 279 279 280 281 283 284 285 286 287 287 288 288 289 289 290 290 290 290 290 290 290 290 290 289 289 288 286 285 284 283 282 281 280 279 278 277
271 272 274 275 277 278 278 279 280 280 281 283 284 285 286 286 287 288 289 289 290 290 290 290 290 290 290 290 290 290 290 289 288 287 285 284 283 282 281 279 279 278 277
271 273 274 275 276 277 278 279 280 281 282 284 285 286 286 287 287 288 289 289 290 290 291 291 291 291 291 291 291 291 290 290 289 287 286 285 284 283 282 280 278 278 276
270 272 274 275 276 277 278 279 280 282 283 284 285 286 287 288 288 289 289 290 291 291 292 291 291 292 292 292 292 291 290 290 289 288 287 286 285 284 283 280 278 277 276
270 272 274 276 277 278 278 279 280 282 283 285 285 286 287 287 288 289 290 291 292 292 292 292 292 292 292 292 292 291 291 291 290 289 288 287 286 285 284 282 280 278 276
270 272 273 276 278 279 279 280 281 283 283 284 284 286 287 288 289 290 291 291 292 292 292 292 292 293 292 292 292 292 291 291 291 290 289 288 288 286 285 283 281 279 277
270 272 273 275 277 279 279 281 283 284 285 285 286 286 286 287 288 290 291 292 292 292 293 293 293 293 293 293 293 292 292 292 291 291 290 289 288 287 286 284 283 282 279
270 272 274 275 277 279 280 282 284 285 285 286 287 288 289 288 288 289 291 292 292 293 293 293 293 293 293 294 294 293 293 292 292 291 291 290 289 288 287 286 284 283 280
270 272 274 276 277 279 281 282 284 285 286 286 288 290 290 292 291 291 291 293 293 294 294 294 294 294 294 294 294 294 293 293 293 293 292 291 289 288 287 286 285 284 282
270 272 274 275 277 278 280 282 284 285 286 287 288 290 292 293 294 293 293 293 294 295 295 295 295 296 296 296 295 295 294 294 294 293 292 292 291 290 289 287 286 284 283
270 271 273 275 276 278 280 282 284 285 286 288 289 291 292 293 294 294 294 294 295 296 296 297 296 296 297 297 297 296 295 294 293 293 292 292 292 290 290 289 287 286 284
269 272 274 276 277 279 281 282 284 285 287 288 290 291 293 295 295 295 296 296 296 297 297 297 297 297 298 298 298 297 296 294 294 293 293 293 292 291 291 290 289 287 285
269 271 273 275 277 279 281 282 284 285 287 289 290 292 294 295 296 297 297 297 297 297 298 298 298 298 298 298 297 297 296 295 295 294 294 294 294 293 292 290 289 288 286
269 271 273 275 277 279 281 282 284 285 287 289 291 292 294 296 297 297 298 298 299 299 299 300 300 299 299 298 298 298 297 297 296 295 295 296 295 294 294 292 290 289 287
269 271 273 275 277 279 281 282 284 286 288 290 291 293 295 296 297 298 299 299 300 301 301 302 302 301 300 300 300 300 299 298 297 297 297 297 296 295 295 293 291 290 289
269 271 274 276 277 279 281 282 284 286 288 290 291 293 295 296 297 298 299 300 301 302 303 303 303 303 302 301 301 301 301 300 299 298 298 298 297 296 295 294 293 291 290
270 272 274 276 278 279 281 283 284 286 288 290 292 294 295 296 296 298 300 301 302 303 304 304 304 303 303 303 302 302 302 302 301 300 300 299 298 297 297 297 296 294 292
271 272 274 275 277 279 281 284 285 287 289 291 293 295 296 296 297 299 301 302 303 304 305 305 305 305 305 304 304 303 303 303 303 303 303 301 300 299 299 298 297 296 294
271 273 274 275 276 279 282 284 286 288 290 292 294 295 296 296 298 299 301 303 304 305 306 306 306 306 306 305 305 305 305 305 305 305 305 304 302 301 301 301 300 299 297
272 274 275 275 277 279 282 285 286 289 291 293 295 296 296 297 298 300 301 303 304 305 306 306 306 306 307 307 307 307 307 307 307 306 307 306 304 303 303 303 303 303 301
274 275 275 277 278 280 283 285 287 290 292 294 295 296 297 298 299 300 301 303 304 306 306 306 306 307 308 308 309 310 310 309 309 308 307 306 305 306 306 306 306 305 303
274 275 276 278 279 281 284 286 287 290 292 294 296 296 297 299 299 300 302 303 305 306 306 306 308 309 309 309 310 311 312 313 314 313 311 309 308 308 309 309 308 308 307
273 275 277 279 281 283 286 287 288 291 293 294 296 297 298 298 299 300 302 304 305 305 306 307 308 309 310 311 313 314 315 316 317 316 314 313 311 310 312 314 313 312 312
273 275 278 280 282 284 286 288 290 291 292 294 296 297 297 298 299 301 302 304 305 305 305 307 309 310 312 314 315 316 318 318 318 316 314 314 314 312 313 314 316 315 314
274 276 278 280 282 286 287 289 290 291 293 295 296 296 297 299 300 301 303 305 305 305 306 307 308 311 313 314 316 318 319 320 319 318 315 315 316 315 315 316 319 318 316
Height
5813 5813 5813 5813 5813 5813 5812 5812 5811 5811 5810 5809 5808 5807 5806 5805 5803 5802 5800 5798 5797 5795 5793 5791 5789 5787 5785 5783 5781 5779 5777 5775 5773 5771 5770 5768 5767 5765 5764 5763 5763 5762 5762
5807 5807 5807 5807 5807 5807 5806 5806 5805 5804 5804 5803 5802 5800 5799 5797 5796 5794 5792 5791 5789 5787 5785 5783 5781 5778 5776 5774 5772 5769 5767 5765 5762 5760 5758 5757 5755 5754 5752 5751 5751 5750 5749
5801 5801 5801 5801 5801 5800 5800 5799 5798 5797 5797 5796 5794 5793 5791 5790 5788 5786 5784 5782 5780 5778 5776 5773 5771 5769 5766 5764 5761 5759 5756 5753 5751 5749 5746 5744 5743 5741 5739 5738 5737 5736 5736
5795 5795 5795 5794 5794 5793 5793 5792 5791 5790 5789 5788 5787 5785 5783 5782 5780 5778 5776 5773 5771 5769 5766 5764 5761 5758 5756 5753 5750 5747 5744 5742 5739 5736 5734 5731 5729 5727 5725 5723 5722 5722 5721
5788 5788 5788 5787 5787 5786 5786 5785 5784 5783 5782 5780 5779 5777 5775 5773 5771 5769 5767 5764 5762 5759 5756 5754 5751 5748 5745 5741 5738 5735 5732 5729 5726 5723 5720 5717 5714 5712 5709 5707 5706 5706 5705
5781 5781 5780 5780 5779 5779 5778 5777 5776 5775 5773 5772 5770 5769 5767 5765 5762 5760 5758 5755 5752 5749 5746 5743 5740 5737 5733 5729 5726 5722 5719 5716 5712 5709 5706 5703 5700 5697 5694 5692 5690 5689 5689
5773 5773 5773 5773 5772 5771 5770 5769 5768 5766 5765 5763 5762 5760 5759 5756 5754 5751 5748 5746 5742 5739 5735 5732 5729 5725 5721 5717 5713 5709 5705 5702 5698 5694 5691 5688 5684 5681 5678 5676 5674 5672 5671
5766 5766 5766 5765 5764 5763 5762 5761 5759 5758 5756 5754 5753 5751 5750 5749 5746 5743 5740 5736 5733 5729 5725 5721 5717 5712 5708 5704 5700 5696 5692 5688 5684 5680 5676 5673 5669 5665 5662 5660 5657 5655 5653
5758 5758 5757 5757 5756 5755 5754 5752 5751 5749 5747 5745 5743 5741 5739 5738 5737 5735 5731 5727 5722 5718 5714 5709 5705 5700 5695 5691 5686 5682 5677 5673 5669 5665 5661 5657 5653 5649 5646 5643 5640 5638 5636
5750 5750 5749 5748 5748 5746 5745 5744 5742 5740 5738 5736 5734 5731 5728 5725 5723 5723 5721 5717 5712 5707 5702 5697 5692 5687 5682 5677 5672 5667 5663 5659 5654 5649 5645 5641 5637 5633 5630 5627 5623 5621 5619
5742 5741 5741 5740 5739 5738 5736 5735 5733 5731 5728 5726 5724 5721 5718 5715 5711 5708 5708 5706 5701 5695 5690 5684 5679 5673 5668 5662 5657 5653 5648 5643 5638 5634 5629 5625 5621 5617 5613 5610 5606 5604 5602
5733 5733 5732 5731 5730 5729 5727 5725 5723 5721 5719 5716 5713 5710 5707 5704 5700 5696 5693 5691 5688 5683 5677 5671 5665 5660 5654 5648 5643 5637 5632 5627 5622 5618 5614 5609 5605 5601 5597 5593 5590 5586 5584
5724 5724 5723 5722 5720 5719 5717 5715 5713 5711 5708 5706 5703 5699 5696 5692 5688 5683 5680 5677 5674 5671 5665 5659 5652 5646 5640 5634 5628 5622 5617 5612 5607 5602 5598 5593 5589 5584 5580 5576 5572 5568 5565
5715 5714 5713 5712 5710 5709 5707 5705 5703 5700 5698 5695 5691 5688 5684 5680 5676 5671 5667 5663 5660 5657 5653 5647 5639 5632 5626 5619 5613 5607 5602 5597 5591 5586 5582 5577 5572 5567 5562 5558 5554 5550 5547
5705 5704 5703 5702 5700 5698 5697 5694 5692 5690 5687 5684 5680 5677 5673 5669 5664 5660 5655 5649 5645 5641 5640 5634 5626 5619 5612 5605 5599 5593 5588 5582 5576 5571 5566 5561 5555 5550 5545 5541 5537 5533 5530
5695 5694 5693 5691 5690 5688 5686 5684 5682 5679 5676 5673 5669 5666 5662 5657 5653 5648 5643 5638 5631 5626 5623 5620 5613 5605 5598 5592 5585 5579 5573 5567 5561 5555 5550 5545 5539 5534 5529 5525 5521 5518 5515
5684 5683 5682 5680 5679 5677 5675 5673 5671 5668 5665 5662 5658 5655 5651 5646 5642 5637 5632 5626 5620 5613 5608 5606 5599 5592 5585 5579 5573 5566 5559 5553 5547 5541 5536 5530 5525 5520 5515 5511 5508 5504 5501
5673 5672 5671 5670 5668 5666 5664 5662 5660 5657 5654 5651 5647 5643 5639 5635 5630 5625 5620 5615 5608 5601 5594 5590 5586 5580 5573 5566 5559 5553 5547 5540 5534 5528 5522 5517 5511 5507 5502 5498 5494 5490 5487
5662 5661 5660 5659 5657 5655 5654 5651 5649 5646 5643 5640 5636 5632 5628 5623 5619 5614 5609 5603 5596 5590 5582 5576 5572 5566 5560 5553 5547 5541 5535 5529 5522 5516 5511 5505 5500 5495 5491 5486 5482 5478 5474
5651 5650 5649 5648 5647 5645 5643 5641 5638 5636 5632 5629 5625 5620 5616 5612 5607 5603 5597 5591 5585 5579 5572 5565 5559 5554 5548 5541 5534 5529 5525 5519 5513 5506 5500 5495 5490 5485 5480 5475 5471 5467 5463
5641 5640 5639 5637 5636 5635 5633 5630 5628 5625 5622 5618 5614 5609 5605 5600 5596 5591 5585 5580 5574 5568 5561 5554 5548 5543 5537 5531 5525 5519 5513 5509 5504 5496 5492 5486 5481 5477 5472 5467 5462 5458 5454
5631 5630 5629 5627 5626 5625 5623 5620 5618 5615 5612 5608 5604 5599 5595 5590 5585 5580 5574 5568 5562 5556 5550 5544 5538 5532 5526 5520 5515 5509 5503 5498 5495 5490 5484 5479 5473 5469 5464 5460 5455 5450 5446
5621 5620 5619 5617 5616 5614 5612 5610 5607 5605 5601 5597 5593 5589 5584 5579 5574 5570 5564 5558 5552 5545 5539 5533 5528 5522 5517 5511 5506 5501 5495 5489 5484 5479 5475 5472 5467 5462 5457 5452 5448 5443 5439
5612 5611 5609 5608 5606 5605 5602 5600 5597 5594 5591 5586 5582 5578 5574 5569 5564 5559 5555 5549 5543 5537 5531 5525 5519 5514 5508 5502 5497 5492 5487 5483 5478 5472 5467 5464 5461 5456 5451 5447 5442 5438 5433
5603 5602 5601 5599 5597 5594 5592 5589 5587 5583 5580 5576 5572 5567 5563 5558 5554 5549 5545 5540 5535 5529 5523 5517 5512 5506 5501 5495 5490 5485 5481 5476 5472 5468 5462 5458 5454 5450 5447 5442 5438 5433 5429
5594 5593 5591 5589 5587 5585 5582 5579 5576 5574 5570 5566 5562 5557 5553 5549 5544 5540 5535 5531 5526 5521 5516 5511 5506 5500 5495 5489 5484 5479 5474 5469 5465 5462 5457 5453 5448 5444 5442 5439 5435 5430 5427